Погода в Мищенском

Россия / Ставропольский край     44°35′55″N   41°36′13″E
темп.,
°C
ветер,
м/с
пор.,
м/с
влажн.,
%
обл.,
%
осадки,
мм/ч
давл.,
гПа
погр.,
м
24 июля, сб
сб2400:00+16зюз22913 0.2 101126
03:00+16зюз11905 0.2 101112
06:00+16ююз118952 0.0 101219
09:00+21в127251 0.0 1012627
12:00+25св435490 0.1 10111705
15:00+23св4562100 0.3 1011711
18:00+23в246784 0.1 1012178
21:00+18ююв227976 0.2 101313
25 июля, вс
вс2500:00+19ююв237686 0.0 101446
03:00+18ююв2281100 0.2 101425
06:00+19в127896 0.0 101431
09:00+22в356268 0.1 1014428
12:00+26в79510 0.1 10141480
15:00+26в810515 0.1 10141574
18:00+24всв6105954 0.0 1014750
21:00+20в514660 0.0 1015416
26 июля, пн
пн2600:00+18вюв35710 0.0 1015102
03:00+17вюв36760 0.0 1015134
06:00+18вюв415770 0.0 1016490
09:00+24вюв914500 0.0 10151026
12:00+27вюв1012434 0.0 10151255
15:00+27в9114511 0.0 10141469
18:00+26в6115498 0.0 1014879
21:00+24в9164576 0.0 1014660
27 июля, вт
вт2700:00+22вюв716539 0.0 1015559
03:00+19вюв51266100 0.0 1014343
06:00+17ююв1188100 2.1 101742
09:00+18в51391100 4.8 1017611
12:00+22вюв71069100 0.3 1016940
15:00+23в71065100 0.8 10161311
18:00+19в61180100 0.9 1018619
21:00+17вюв71382100 0.9 1019693
28 июля, ср
ср2800:00+15вюв715834 0.0 1019573
03:00+16вюв616758 0.0 1018576
06:00+16вюв615733 0.0 1019564
09:00+21вюв712513 0.0 1018930
12:00+25в812420 0.0 10171616
15:00+25в710390 0.0 10161812
18:00+23в69510 0.0 1017875
21:00+17вюв412690 0.0 1017219